Content
SEND FEEDBACK

Daily
Averages
Monthly
Summary
United States of America

STATEN ISLAND, NEW YORK


Home > North America > United States > New York
Elevation: 152 feet     Latitude: 40 35N     Longitude: 074 09W

WEATHER
 
SELECT A DAY
Number of Records: 193,244;   Date Range: 1/1/95 - 11/24/14
 
SHARE

PRINT THIS DATA

[ ← Previous Day ]
WEATHER ALMANAC - MARCH 12, 2013
[ Next Day → ]
[ °C ]   °F
Weather ElementAverageHighLow
Temperature53.1 °F59 °F (5:44 pm)45 °F (11:51 pm)
Dewpoint49.2 °F57.2 °F (5:28 pm)35.1 °F (11:51 pm)
Humidity87.4 %100 % (3:48 pm)68 % (8:51 pm)
Barometer29.82 in30.02 in (1:51 am)29.67 in (4:51 pm)
Wind Speed10.4 mph18.4 mph (9:51 pm)
Wind Gust26.5 mph (1:51 pm)
Weather ElementAverage
Visibility7 mi
Wind DirectionSSW (192.4 °)

Weather ElementTotal
Precipitation1.20 in
Heating Degree Days13 (Base 65)
Growing Degree Days2 (Base 50)
Averaged from 34 records on March 12, 2013
WEATHER CONDITIONS BREAKOUT
WIND DIRECTION BREAKOUT
WEATHER BY HOUR - MARCH 12, 2013
[ °C ]   °F
Local TimeTemperatureDewpointHumidityBarometerVisibilityWind DirectionWind SpeedGust SpeedPrecipitationEventsConditions
1:51 AM51.8 °F46.4 °F82 %30.02 in10.0 miSSE (160°)9.2 mphOvercast
2:51 AM51.1 °F46.9 °F86 %30.01 in10.0 miSSE (150°)5.8 mphOvercast
3:51 AM51.1 °F46.0 °F83 %29.99 in10.0 miSE (140°)3.5 mphOvercast
4:51 AM52.0 °F46.0 °F80 %29.97 in10.0 miSE (140°)3.5 mph0.00 inRainLight Rain
5:51 AM51.1 °F48.0 °F89 %29.95 in10.0 miCalm0.02 inRainLight Rain
6:51 AM53.1 °F48.9 °F86 %29.95 in8.0 miSouth (170°)9.2 mph0.02 inRainLight Rain
7:51 AM51.1 °F48.9 °F92 %29.94 in6.0 miSSE (150°)4.6 mph0.02 inRainLight Rain
8:51 AM53.1 °F48.9 °F86 %29.92 in7.0 miSouth (170°)12.7 mph17.3 mph0.01 inRainLight Rain
9:39 AM53.6 °F50.0 °F88 %29.91 in8.0 miSouth (170°)10.4 mph0.01 inRainLight Rain
9:51 AM53.1 °F50.0 °F89 %29.91 in8.0 miSSE (160°)9.2 mph0.01 inRainLight Rain
10:51 AM53.1 °F51.1 °F93 %29.89 in4.0 miSouth (170°)9.2 mph0.05 inRainRain
11:17 AM53.6 °F51.8 °F94 %29.87 in4.0 miSSE (160°)11.5 mph20.7 mph0.03 inRainLight Rain
11:51 AM53.6 °F51.8 °F94 %29.85 in5.0 miSSE (150°)10.4 mph17.3 mphRainLight Rain
12:48 PM51.8 °F50.0 °F94 %29.82 in4.0 miSSE (150°)12.7 mph19.6 mph0.04 inRainLight Rain
12:51 PM52.0 °F50.0 °F93 %29.82 in4.0 miSSE (150°)9.2 mph19.6 mph0.05 inRainLight Rain
1:28 PM53.6 °F51.8 °F94 %29.79 in4.0 miSSE (150°)9.2 mph19.6 mph0.03 inRainLight Rain
1:51 PM53.1 °F52.0 °F96 %29.76 in4.0 miSSE (160°)17.3 mph26.5 mph0.08 inRainLight Rain
2:51 PM53.1 °F52.0 °F96 %29.71 in7.0 miSSE (150°)12.7 mph23.0 mph0.04 inRainLight Rain
3:21 PM53.6 °F51.8 °F94 %29.70 in2.0 miSSE (150°)9.2 mph18.4 mph0.06 inRainHeavy Rain
3:33 PM53.6 °F51.8 °F94 %29.70 in1.8 miSSE (160°)8.1 mph0.11 inRainHeavy Rain
3:48 PM53.6 °F53.6 °F100 %29.69 in2.0 miSSE (160°)11.5 mph17.3 mph0.23 inRainRain
3:51 PM54.0 °F53.1 °F97 %29.68 in2.0 miSSE (160°)12.7 mph17.3 mph0.24 inRainLight Rain
4:51 PM55.9 °F54.0 °F93 %29.67 in2.0 miSouth (170°)10.4 mph0.03 inOvercast
5:28 PM57.2 °F57.2 °F100 %29.67 in6.0 miSW (230°)9.2 mph0.04 inRainLight Rain
5:44 PM59.0 °F57.2 °F94 %29.68 in9.0 miSW (230°)10.4 mph0.04 inMostly Cloudy
5:51 PM59.0 °F55.9 °F90 %29.69 in10.0 miSW (230°)10.4 mph0.04 inMostly Cloudy
6:05 PM57.2 °F55.4 °F94 %29.69 in10.0 miWSW (240°)13.8 mphMostly Cloudy
6:51 PM57.0 °F52.0 °F83 %29.74 in10.0 miWest (270°)12.7 mphMostly Cloudy
7:51 PM54.0 °F45.0 °F72 %29.77 in10.0 miNW (310°)13.8 mph23.0 mphMostly Cloudy
8:22 PM53.6 °F44.6 °F72 %29.79 in10.0 miNW (310°)9.2 mphMostly Cloudy
8:51 PM51.1 °F41.0 °F68 %29.81 in10.0 miNW (320°)16.1 mphMostly Cloudy
9:51 PM48.0 °F39.0 °F71 %29.83 in10.0 miNW (320°)18.4 mph23.0 mphMostly Cloudy
10:51 PM46.9 °F37.0 °F68 %29.84 in10.0 miNW (320°)15.0 mph24.2 mphScattered Clouds
11:51 PM45.0 °F35.1 °F68 %29.85 in10.0 miNW (310°)11.5 mph23.0 mphScattered Clouds
Hourly data recorded from KEWR, located miles away from Staten Island, New York







STORIES FROM OUR PARTNERS